Temp
73 76 80 81 81 83 83 83 82 82 82 82 82 83 83 83 83 83 83 83 83 83 82 83 83 83 83 83 83 83 82 82 82 83 83 82 83 82 82 82 82 89 82
77 77 81 81 82 83 82 82 82 82 82 82 83 83 83 83 83 83 83 83 83 83 82 82 83 83 83 83 83 83 83 83 83 83 83 83 82 82 82 82 83 85 82
77 83 84 81 83 82 82 82 83 83 83 83 83 83 83 83 83 83 83 83 83 83 83 83 83 83 83 83 83 83 83 83 83 82 82 88 88 82 82 82 82 82 82
85 85 85 80 82 82 82 83 83 83 83 83 83 83 83 83 83 83 83 83 83 83 83 83 83 83 83 83 83 83 83 83 83 82 88 89 90 83 82 82 82 82 82
85 86 84 82 82 83 83 83 83 83 83 83 83 83 83 83 83 83 83 83 83 83 83 83 83 83 83 83 83 83 82 82 82 84 86 85 90 85 82 81 82 82 83
85 86 84 83 83 83 83 83 83 83 83 83 83 83 83 83 83 83 83 83 83 84 83 83 83 83 83 83 83 83 83 83 83 86 86 85 85 83 82 82 82 82 82
86 86 87 83 83 83 83 83 83 83 83 83 83 83 83 84 84 83 83 84 83 84 84 84 83 83 83 83 83 83 82 83 85 85 85 86 86 82 82 82 82 82 82
86 88 88 83 83 83 83 83 83 83 83 83 83 83 84 84 84 84 84 84 84 84 84 84 83 83 83 83 83 83 82 83 86 85 84 86 82 81 82 82 82 82 82
87 87 87 88 85 83 83 83 83 83 83 83 83 83 83 83 83 84 84 84 84 85 85 84 84 84 84 83 83 83 82 81 85 86 87 87 80 81 83 82 82 81 81
86 87 86 87 88 87 87 83 83 83 83 83 83 83 83 84 84 84 83 83 84 84 85 84 84 84 84 83 83 82 82 81 86 86 88 88 80 82 83 83 82 81 81
83 85 86 87 86 85 86 86 84 83 83 83 84 83 85 90 89 87 83 83 83 84 85 84 84 84 84 83 83 83 81 89 88 88 88 78 80 83 83 82 82 81 81
81 84 86 86 85 85 87 85 85 87 89 88 88 86 89 87 86 86 85 82 83 85 85 84 84 84 85 92 92 85 92 88 88 88 90 78 80 83 83 82 81 81 81
83 84 84 84 83 85 85 86 86 87 87 87 85 85 86 87 87 89 89 90 90 86 92 90 90 91 85 86 82 93 90 88 91 89 84 78 79 83 83 82 82 81 81
81 82 84 84 82 83 85 85 86 86 86 87 86 84 84 86 86 86 88 88 87 91 82 83 86 86 89 87 90 90 90 91 92 91 86 78 80 81 82 82 82 82 81
81 82 83 83 81 82 82 85 85 85 86 87 86 85 86 86 85 86 87 88 87 83 84 83 80 84 86 89 90 90 85 89 89 92 92 80 80 80 81 81 82 82 82
81 82 84 82 82 82 82 81 83 84 86 85 87 86 84 85 84 86 86 86 84 85 87 80 85 81 85 85 86 90 90 91 87 88 92 89 80 81 82 81 81 82 82
82 83 82 82 83 82 81 82 83 85 86 86 87 85 84 83 84 83 86 86 85 87 85 85 82 83 80 81 79 89 90 88 90 88 90 92 89 81 82 82 82 82 82
83 81 82 85 83 82 82 82 83 85 85 86 87 86 84 84 83 84 85 87 88 86 82 84 78 87 87 82 76 87 89 88 82 88 90 91 91 93 84 82 82 81 81
83 81 81 82 83 82 81 83 83 83 84 86 87 87 85 82 84 84 87 87 85 87 82 86 86 85 85 87 87 87 86 84 85 92 89 89 89 90 92 81 81 81 83
84 82 82 82 82 81 82 81 83 84 84 86 86 84 85 86 85 84 87 85 85 86 85 86 83 85 85 84 87 85 85 86 87 90 90 92 90 89 90 88 88 88 81
84 82 81 80 80 81 81 81 81 82 83 85 86 85 84 85 84 83 87 85 84 83 84 83 85 82 84 84 84 84 84 85 85 86 88 91 87 89 88 88 89 86 86
83 82 81 80 80 80 82 82 83 83 86 86 87 85 85 85 84 85 84 85 84 84 82 82 81 83 84 83 82 82 80 82 85 87 80 88 86 89 88 86 85 84 86
83 82 81 81 81 81 82 82 82 83 83 83 85 86 86 86 85 84 84 84 84 84 85 82 81 80 83 81 79 82 78 78 82 85 82 87 85 87 87 86 85 84 84
85 84 83 82 81 82 82 82 80 82 82 85 86 87 87 86 86 85 84 84 83 85 83 83 83 82 80 80 80 82 80 81 80 77 83 84 85 86 85 87 87 85 84
86 85 84 82 81 82 81 82 82 81 85 87 86 84 83 85 85 86 84 83 83 84 83 82 80 78 82 83 82 80 79 81 79 80 78 80 83 85 86 85 88 88 85
87 86 84 81 80 81 81 81 80 81 82 84 83 84 85 87 87 84 85 83 83 84 82 83 81 80 80 81 82 82 82 81 80 80 79 78 81 82 85 85 83 85 87
MSLP
1015.64 1015.72 1015.79 1015.91 1016.02 1016.03 1016.08 1016.24 1016.40 1016.61 1016.89 1017.13 1017.33 1017.54 1017.71 1017.80 1017.96 1018.01 1018.08 1018.12 1018.11 1018.01 1018.12 1018.23 1018.28 1018.39 1018.49 1018.52 1018.53 1018.47 1018.58 1018.67 1018.75 1018.78 1018.86 1018.97 1019.02 1019.07 1019.19 1019.21 1019.15 1018.84 1019.47
1015.46 1015.76 1015.86 1016.02 1016.11 1016.35 1016.41 1016.63 1016.82 1016.96 1017.27 1017.41 1017.56 1017.75 1017.85 1017.96 1018.09 1018.22 1018.32 1018.36 1018.28 1018.25 1018.42 1018.41 1018.48 1018.57 1018.64 1018.66 1018.64 1018.65 1018.73 1018.80 1018.88 1018.89 1018.99 1019.08 1019.27 1019.36 1019.42 1019.51 1019.32 1019.48 1019.73
1015.60 1015.72 1015.91 1016.14 1016.31 1016.55 1016.75 1016.84 1017.04 1017.25 1017.54 1017.62 1017.71 1017.90 1017.99 1018.11 1018.30 1018.45 1018.57 1018.56 1018.53 1018.57 1018.60 1018.61 1018.64 1018.66 1018.70 1018.74 1018.70 1018.76 1018.89 1018.90 1018.95 1019.14 1019.28 1018.81 1018.97 1019.44 1019.54 1019.59 1019.64 1019.76 1019.93
1015.18 1015.69 1016.09 1016.37 1016.43 1016.69 1016.88 1017.09 1017.34 1017.56 1017.72 1017.78 1018.00 1018.13 1018.22 1018.38 1018.51 1018.65 1018.77 1018.76 1018.72 1018.71 1018.70 1018.70 1018.74 1018.76 1018.79 1018.83 1018.87 1018.98 1018.97 1019.05 1019.13 1019.29 1018.97 1018.83 1018.80 1019.55 1019.62 1019.58 1019.75 1019.84 1020.01
1015.42 1015.82 1016.20 1016.52 1016.67 1016.86 1017.13 1017.35 1017.58 1017.75 1017.91 1018.06 1018.20 1018.34 1018.50 1018.66 1018.79 1018.91 1018.97 1018.89 1018.83 1018.88 1018.91 1018.88 1018.87 1018.87 1018.87 1018.91 1019.02 1019.05 1018.95 1019.08 1019.36 1019.32 1019.29 1019.23 1018.81 1019.62 1019.77 1019.72 1019.86 1020.00 1020.11
1015.49 1015.93 1016.38 1016.58 1016.84 1017.08 1017.30 1017.54 1017.75 1017.96 1018.19 1018.32 1018.41 1018.57 1018.75 1018.89 1019.00 1019.08 1019.09 1018.99 1019.02 1018.99 1019.02 1019.04 1019.02 1019.00 1018.99 1019.05 1018.97 1019.03 1019.07 1019.15 1019.35 1019.38 1019.45 1019.53 1019.36 1019.73 1019.93 1019.96 1020.04 1020.18 1020.37
1015.54 1015.99 1016.31 1016.76 1017.00 1017.29 1017.48 1017.71 1017.94 1018.22 1018.37 1018.45 1018.60 1018.76 1018.92 1019.04 1019.15 1019.21 1019.22 1019.18 1019.20 1019.12 1019.18 1019.09 1019.06 1019.08 1019.06 1019.13 1019.10 1019.19 1019.24 1019.18 1019.43 1019.54 1019.58 1019.52 1019.65 1020.04 1020.19 1020.20 1020.21 1020.42 1020.59
1015.60 1015.86 1016.37 1016.97 1017.20 1017.42 1017.63 1017.86 1018.11 1018.30 1018.47 1018.63 1018.80 1018.96 1019.08 1019.23 1019.30 1019.34 1019.36 1019.36 1019.24 1019.18 1019.19 1019.13 1019.10 1019.09 1019.23 1019.27 1019.17 1019.25 1019.44 1019.50 1019.53 1019.70 1019.88 1019.77 1020.09 1020.29 1020.30 1020.51 1020.62 1020.78 1020.86
1015.74 1016.02 1016.41 1016.82 1017.26 1017.59 1017.86 1018.07 1018.27 1018.47 1018.70 1018.81 1018.91 1019.08 1019.22 1019.32 1019.34 1019.38 1019.44 1019.45 1019.36 1019.30 1019.24 1019.21 1019.17 1019.17 1019.27 1019.39 1019.37 1019.40 1019.64 1019.92 1019.83 1019.85 1019.85 1019.97 1020.47 1020.51 1020.42 1020.67 1020.86 1020.97 1021.15
1015.93 1016.15 1016.50 1016.76 1017.11 1017.49 1017.84 1018.20 1018.45 1018.67 1018.84 1018.92 1019.06 1019.17 1019.26 1019.32 1019.37 1019.39 1019.43 1019.45 1019.40 1019.37 1019.37 1019.35 1019.30 1019.26 1019.36 1019.38 1019.50 1019.58 1019.83 1020.07 1019.84 1019.95 1020.02 1019.97 1020.58 1020.58 1020.67 1020.84 1021.06 1021.24 1021.45
1016.11 1016.28 1016.43 1016.69 1017.19 1017.59 1017.85 1018.14 1018.50 1018.76 1018.89 1019.01 1019.14 1019.24 1019.30 1019.21 1019.22 1019.16 1019.37 1019.42 1019.49 1019.38 1019.42 1019.48 1019.48 1019.36 1019.43 1019.50 1019.59 1019.68 1019.84 1019.68 1019.85 1019.95 1020.04 1020.58 1020.74 1020.66 1020.82 1021.00 1021.24 1021.42 1021.64
1015.80 1016.15 1016.36 1016.66 1017.10 1017.50 1017.76 1018.15 1018.41 1018.56 1018.55 1018.72 1018.95 1019.22 1019.15 1019.26 1019.41 1019.34 1019.28 1019.37 1019.36 1019.39 1019.44 1019.50 1019.53 1019.45 1019.37 1019.20 1019.32 1019.60 1019.45 1019.69 1019.85 1019.95 1019.98 1020.68 1020.78 1020.74 1020.94 1021.17 1021.43 1021.53 1021.73
1015.54 1016.07 1016.37 1016.74 1017.18 1017.45 1017.68 1018.00 1018.25 1018.44 1018.57 1018.70 1019.03 1019.18 1019.28 1019.29 1019.35 1019.23 1019.21 1019.18 1019.28 1019.35 1019.15 1019.34 1019.37 1019.30 1019.45 1019.49 1019.72 1019.21 1019.43 1019.67 1019.61 1019.84 1020.28 1020.78 1020.89 1020.83 1020.99 1021.19 1021.42 1021.65 1021.87
1015.48 1015.84 1016.28 1016.56 1017.08 1017.40 1017.66 1017.86 1018.00 1018.23 1018.46 1018.57 1018.77 1019.13 1019.26 1019.23 1019.27 1019.26 1019.18 1019.23 1019.26 1019.16 1019.55 1019.54 1019.39 1019.52 1019.41 1019.46 1019.31 1019.24 1019.38 1019.40 1019.62 1019.81 1020.23 1020.77 1020.96 1021.07 1021.17 1021.27 1021.41 1021.57 1021.76
1015.30 1015.65 1016.02 1016.42 1016.93 1017.27 1017.70 1017.72 1017.89 1018.11 1018.29 1018.40 1018.72 1018.96 1019.13 1019.15 1019.16 1019.22 1019.21 1019.16 1019.23 1019.53 1019.55 1019.37 1019.65 1019.53 1019.44 1019.30 1019.34 1019.27 1019.60 1019.57 1019.81 1019.82 1019.96 1020.68 1020.93 1021.08 1021.14 1021.34 1021.44 1021.54 1021.74
1014.88 1015.27 1015.79 1016.26 1016.61 1017.06 1017.40 1017.72 1017.85 1018.05 1018.19 1018.43 1018.49 1018.71 1019.11 1019.11 1019.22 1019.14 1019.19 1019.22 1019.35 1019.35 1019.22 1019.59 1019.27 1019.56 1019.46 1019.49 1019.43 1019.28 1019.27 1019.45 1019.87 1019.87 1019.82 1020.21 1020.85 1020.97 1021.14 1021.19 1021.40 1021.42 1021.57
1014.29 1014.94 1015.44 1015.95 1016.25 1016.76 1017.14 1017.53 1017.77 1017.93 1018.06 1018.16 1018.30 1018.64 1018.86 1019.02 1019.02 1019.20 1019.06 1019.01 1019.10 1019.20 1019.35 1019.39 1019.59 1019.57 1019.88 1019.87 1019.85 1019.40 1019.33 1019.50 1019.47 1019.76 1019.79 1019.96 1020.28 1020.83 1020.95 1021.06 1021.12 1021.27 1021.51
1013.86 1014.47 1015.16 1015.57 1015.93 1016.44 1016.74 1017.17 1017.45 1017.67 1017.87 1017.97 1018.15 1018.36 1018.62 1018.79 1018.87 1018.98 1018.98 1018.91 1019.05 1019.18 1019.29 1019.25 1019.85 1019.61 1019.74 1020.04 1020.06 1019.62 1019.31 1019.45 1019.86 1019.73 1019.78 1020.03 1020.21 1020.18 1020.71 1020.87 1021.04 1021.23 1021.46
1013.50 1014.07 1014.68 1015.26 1015.57 1016.04 1016.51 1016.84 1017.17 1017.47 1017.70 1017.72 1017.96 1018.09 1018.32 1018.60 1018.69 1018.83 1018.73 1018.80 1019.17 1019.10 1019.34 1019.36 1019.59 1019.71 1019.81 1019.88 1019.85 1019.80 1019.72 1019.77 1019.75 1019.43 1019.80 1020.13 1020.30 1020.36 1020.34 1020.98 1021.00 1021.17 1021.28
1013.05 1013.61 1014.20 1014.76 1015.18 1015.74 1016.22 1016.71 1016.82 1017.11 1017.27 1017.48 1017.56 1017.87 1017.95 1018.08 1018.39 1018.65 1018.65 1018.83 1019.08 1019.09 1019.24 1019.37 1019.67 1019.93 1019.98 1020.06 1019.90 1019.98 1020.01 1019.90 1019.82 1019.67 1019.76 1020.04 1020.28 1020.39 1020.46 1020.74 1020.78 1020.83 1021.21
1012.42 1012.95 1013.46 1014.13 1014.54 1015.20 1015.64 1015.97 1016.24 1016.35 1016.77 1017.05 1017.12 1017.33 1017.55 1017.73 1018.03 1018.36 1018.39 1018.73 1019.01 1019.15 1019.30 1019.59 1019.72 1019.93 1020.01 1020.17 1020.01 1020.00 1020.12 1020.22 1020.21 1020.19 1020.26 1020.04 1020.20 1020.29 1020.55 1020.78 1020.78 1021.09 1021.14
1011.42 1012.03 1012.69 1013.20 1013.86 1014.46 1014.92 1015.35 1015.69 1015.93 1016.14 1016.29 1016.48 1016.80 1017.02 1017.26 1017.58 1017.84 1018.09 1018.38 1018.70 1018.98 1019.31 1019.62 1019.82 1019.79 1020.01 1020.30 1020.01 1019.98 1019.76 1020.09 1020.28 1020.49 1020.79 1020.38 1020.44 1020.50 1020.69 1020.94 1021.07 1021.26 1021.22
1010.44 1011.02 1011.71 1012.43 1013.15 1013.81 1014.35 1015.10 1015.64 1015.87 1016.05 1016.18 1016.33 1016.54 1016.67 1016.98 1017.21 1017.48 1017.76 1018.09 1018.49 1018.76 1018.96 1019.42 1019.69 1019.92 1019.81 1020.42 1020.63 1020.25 1019.98 1019.68 1020.18 1020.60 1020.87 1020.75 1020.85 1020.75 1020.89 1021.06 1021.14 1021.34 1021.49
1009.18 1010.06 1010.78 1011.72 1012.49 1013.17 1013.81 1014.29 1014.66 1014.75 1014.92 1015.19 1015.63 1016.09 1016.26 1016.65 1016.83 1017.12 1017.52 1017.90 1018.23 1018.38 1018.84 1019.18 1019.47 1019.75 1019.98 1019.98 1020.64 1020.75 1020.65 1020.43 1019.98 1020.02 1020.63 1020.84 1021.01 1020.92 1021.17 1021.15 1021.15 1021.31 1021.53
1008.68 1009.36 1010.07 1010.82 1011.63 1012.35 1012.99 1013.32 1013.83 1014.27 1014.45 1014.84 1015.35 1015.69 1015.98 1016.23 1016.54 1016.79 1017.23 1017.51 1017.86 1018.17 1018.60 1018.97 1019.32 1019.70 1019.89 1019.86 1020.09 1020.41 1020.62 1020.63 1020.67 1020.18 1019.80 1020.32 1020.76 1020.84 1020.92 1021.11 1021.10 1021.12 1021.40
1007.79 1008.62 1009.47 1010.22 1010.76 1011.57 1012.26 1012.78 1013.12 1013.36 1013.85 1014.32 1014.87 1015.08 1015.32 1015.71 1016.15 1016.50 1016.85 1017.13 1017.43 1017.77 1018.31 1018.60 1019.04 1019.48 1019.82 1019.98 1020.05 1020.11 1019.97 1019.89 1019.95 1020.06 1019.99 1020.08 1019.95 1020.39 1020.66 1020.77 1021.07 1021.13 1021.11
Wind_Speed
7 12 15 16 16 17 16 17 18 18 18 17 16 15 14 13 12 11 10 9 7 8 10 11 9 8 8 9 9 10 10 9 8 9 8 10 10 11 11 10 8 12 12
12 9 16 16 17 18 18 18 18 17 17 16 15 14 13 13 11 10 9 7 8 8 9 10 9 8 7 8 8 9 8 8 8 6 10 11 10 11 11 11 5 13 13
12 12 13 15 18 18 18 17 17 16 16 16 15 14 12 11 10 9 8 8 9 9 8 9 8 7 6 6 5 6 7 7 7 7 7 5 9 9 11 12 11 12 13
16 14 13 15 17 19 17 16 16 17 16 15 14 12 11 10 9 9 8 6 7 8 8 8 8 6 6 5 3 5 6 7 8 7 4 7 9 11 10 12 11 13 12
15 14 14 16 16 17 16 16 15 15 15 14 13 12 10 9 8 8 7 5 7 9 8 7 7 5 5 5 3 3 5 8 9 6 5 5 6 10 10 11 14 13 9
15 14 16 16 17 16 15 15 15 14 14 13 12 10 9 8 7 7 6 6 9 8 7 6 6 5 4 4 3 4 3 8 11 6 5 5 7 12 11 9 11 12 12
16 14 15 15 15 15 15 14 14 13 12 11 10 9 8 7 6 6 6 6 7 7 6 5 5 5 5 5 3 5 6 9 7 5 6 5 7 10 10 11 12 11 12
16 15 15 14 15 14 14 13 12 12 11 10 9 8 6 6 5 5 4 5 6 6 5 5 5 5 5 6 5 8 9 7 6 5 5 4 6 7 12 11 11 12 11
15 15 13 14 13 14 13 12 11 10 9 8 7 6 6 5 4 3 4 4 4 4 4 4 4 4 5 6 5 7 7 7 6 4 5 4 4 6 10 11 9 10 10
14 14 13 13 13 11 11 11 10 9 8 7 6 5 4 3 1 2 1 2 1 2 3 3 2 2 3 3 5 9 9 7 5 5 3 4 5 8 8 10 10 9 10
12 13 14 14 12 11 9 9 9 8 7 6 5 4 3 1 0 1 3 3 1 2 1 2 2 3 3 2 3 6 5 3 4 3 3 5 3 7 7 8 10 10 9
17 16 13 13 12 11 8 8 7 6 5 4 4 3 2 1 2 5 4 5 3 1 2 1 2 2 3 3 3 4 2 3 3 2 2 5 5 7 7 7 9 10 9
17 13 14 13 12 12 8 7 5 4 4 4 5 4 3 2 2 2 1 1 1 1 0 2 1 2 2 3 2 1 3 4 3 3 5 6 7 7 8 7 8 8 9
17 17 15 15 12 12 8 7 7 6 5 4 5 5 3 3 2 2 2 2 2 1 2 1 2 2 1 1 3 5 4 3 2 2 5 4 7 5 8 9 9 9 8
18 17 16 15 13 11 11 7 7 7 6 6 5 5 4 3 2 2 2 3 3 3 2 1 2 2 1 3 1 2 4 2 3 1 1 4 5 5 4 8 10 10 9
18 18 16 16 15 13 11 10 8 7 6 6 5 5 5 4 3 3 3 2 3 3 3 1 2 3 1 1 2 1 1 1 3 3 3 4 2 4 4 4 8 9 9
17 17 17 16 15 14 14 11 8 7 7 7 6 6 6 6 5 4 3 4 3 2 2 3 2 2 3 2 3 2 2 0 2 3 3 2 4 3 2 3 5 7 8
17 17 17 14 16 16 13 10 9 7 7 7 6 6 8 8 7 5 4 4 3 3 1 1 1 1 2 3 1 2 2 1 1 4 3 2 2 1 5 3 4 5 6
18 17 17 16 16 16 14 10 10 9 8 7 6 6 8 9 9 7 5 4 3 2 1 1 1 2 1 2 2 1 3 3 2 3 3 2 2 2 1 5 1 3 4
18 17 16 15 16 15 11 9 8 8 8 7 7 7 9 8 9 7 5 5 4 4 3 2 0 2 1 2 2 3 4 4 2 2 3 2 2 2 3 2 2 4 1
18 18 18 17 16 13 11 11 10 10 9 8 8 10 10 9 9 9 6 5 5 5 3 2 2 3 2 2 1 3 4 4 5 4 4 2 5 4 4 4 1 3 3
20 20 19 18 17 15 11 10 8 9 9 9 8 7 9 10 9 9 8 7 6 4 5 5 4 2 1 2 1 1 2 4 4 4 1 3 5 4 5 4 4 5 3
21 21 19 18 17 15 14 9 8 5 5 7 8 7 8 9 9 10 10 7 6 6 5 5 5 4 1 2 3 2 2 1 2 2 3 2 2 3 3 4 4 4 4
22 20 19 18 17 16 16 13 13 11 11 11 10 9 8 9 9 9 9 9 8 6 6 5 4 4 3 4 3 2 1 1 3 4 4 3 2 3 3 2 3 4 4
19 19 18 18 18 17 16 16 13 14 11 9 9 10 10 9 10 10 10 10 9 7 7 6 6 5 4 3 3 3 2 2 1 2 3 5 4 4 3 3 2 3 4
20 19 18 17 18 18 17 18 17 16 14 11 10 10 10 10 9 11 11 9 10 8 8 7 7 7 5 3 3 4 4 3 4 3 3 3 5 4 3 4 4 4 4
Wind_Direction
134 143 152 147 140 134 123 116 115 117 116 118 120 121 122 115 110 105 103 97 93 93 99 97 99 99 108 110 108 99 92 93 100 113 112 118 114 111 107 109 145 112 112
138 145 143 141 136 130 125 122 119 115 119 121 121 120 120 118 111 108 101 99 93 77 79 83 96 101 107 111 106 103 102 100 107 126 124 126 113 118 112 120 122 100 108
137 142 140 140 133 131 130 119 118 121 123 122 121 129 123 117 114 107 92 75 63 72 73 86 84 90 97 109 121 115 107 104 106 106 99 128 118 125 122 123 121 114 110
140 141 138 136 134 129 123 123 126 127 126 123 131 128 125 121 116 103 93 81 76 71 65 80 81 74 80 97 139 132 125 115 113 110 128 133 122 116 122 137 124 135 126
141 139 139 137 131 129 128 128 128 129 130 135 134 133 129 122 114 104 94 82 76 72 71 73 76 84 75 67 68 162 167 147 120 142 127 117 127 123 118 117 127 123 132
142 147 141 140 135 134 133 131 131 133 138 137 133 131 123 120 113 102 85 60 63 76 80 81 82 80 79 82 64 108 78 157 146 110 121 121 123 120 134 127 121 122 126
145 153 150 144 139 138 137 134 136 140 139 138 136 127 122 118 110 94 78 55 66 70 79 84 79 62 58 51 39 98 76 108 131 120 116 136 122 131 129 115 115 113 124
148 153 149 147 143 143 142 141 145 142 143 139 134 130 123 110 95 86 74 60 56 75 83 82 71 65 60 59 46 107 90 96 123 110 127 136 83 139 122 108 106 110 114
154 156 157 159 155 151 151 154 152 147 147 140 142 143 137 122 111 91 73 61 69 82 87 86 71 64 70 84 60 103 102 110 124 119 146 150 119 147 131 132 121 114 112
162 160 163 167 166 165 164 165 160 158 156 153 155 157 150 144 124 108 109 76 70 88 84 74 66 38 53 79 91 113 100 121 123 140 149 123 171 160 145 135 132 122 122
169 171 173 173 170 169 173 171 173 170 168 169 180 177 163 154 20 286 3 314 170 137 79 47 347 344 2 66 98 130 135 92 142 145 170 134 200 157 153 155 147 138 136
176 180 180 180 178 178 181 183 182 183 186 190 189 206 232 298 304 316 323 344 84 127 123 64 25 29 298 58 132 175 139 114 152 148 165 179 202 194 176 175 158 157 155
182 185 187 184 186 185 187 189 190 193 198 198 209 225 244 275 303 330 329 332 22 74 153 134 108 359 301 32 87 106 122 160 139 151 110 199 213 201 188 176 161 175 164
188 191 190 190 190 192 192 197 197 201 204 208 210 221 241 255 271 312 303 317 305 39 310 2 351 96 34 122 87 105 114 156 133 99 123 189 214 213 210 189 184 186 178
191 193 194 192 194 195 200 202 209 211 209 212 212 215 240 251 284 300 292 307 322 346 335 332 177 157 128 106 83 92 163 148 143 138 131 178 210 218 208 207 198 194 191
193 195 193 196 196 197 204 207 211 213 214 219 220 221 222 248 261 286 282 283 291 290 327 335 332 93 210 8 6 86 191 135 147 185 153 148 219 215 228 204 195 206 197
195 194 198 197 196 201 206 209 216 214 216 223 225 224 228 232 234 265 279 281 311 296 257 186 27 66 87 37 74 34 35 70 244 173 180 158 153 162 197 213 194 203 221
194 195 198 198 197 201 206 207 215 216 219 223 225 228 226 228 232 237 257 268 296 288 253 172 356 27 50 71 354 340 349 76 318 146 151 184 204 257 157 168 190 196 208
198 196 198 200 203 203 206 210 215 217 224 226 228 229 229 223 226 233 238 246 252 277 184 108 87 3 56 53 146 53 45 21 54 124 123 158 158 226 143 102 142 186 210
200 198 198 199 205 202 201 208 215 218 226 230 234 227 230 227 223 220 230 229 219 230 212 170 258 114 44 37 54 75 51 60 73 43 75 73 58 177 152 92 139 112 355
202 201 199 198 200 196 197 203 208 212 214 220 229 239 230 226 219 210 215 206 213 226 221 172 198 194 133 58 167 114 82 79 76 52 28 49 75 90 93 93 80 45 111
202 204 198 200 195 197 197 201 207 205 216 217 219 221 214 207 205 200 207 207 207 213 194 194 198 196 114 72 41 71 158 135 90 53 50 62 73 89 91 80 65 70 83
204 200 199 198 197 198 200 194 200 202 215 207 216 216 212 209 205 207 209 214 202 223 208 202 196 212 213 110 59 354 179 198 178 94 67 78 80 100 88 93 86 94 79
207 200 197 196 198 199 192 196 202 209 210 214 210 213 214 214 214 212 213 208 208 214 218 203 200 212 203 169 132 125 15 5 220 185 166 156 165 173 127 139 115 117 111
206 205 202 196 197 198 196 202 200 214 216 217 216 215 218 215 218 216 211 206 206 214 214 209 193 206 198 217 164 161 166 159 191 271 209 180 203 202 205 213 203 184 177
205 206 205 199 202 198 200 203 205 209 211 212 212 214 221 219 217 216 214 210 212 210 210 207 199 206 209 206 191 193 200 200 190 205 230 226 235 179 223 228 227 222 212